Tracking 20083 objects as of 8-Dec-2019
HD Live streaming from Space Station
objects crossing your sky now

FENGYUN 1C DEB

Track FENGYUN 1C DEB now!
10-day predictions


NORAD ID: 30362
Int'l Code: 1999-025ABZ
Perigee: 830.9 km
Apogee: 996.2 km
Inclination: 99.0 °
Period: 103.1 minutes
Semi major axis: 7284 km
RCS: 0.04 m2 (small)
Launch date: May 10, 1999
Source: People's Republic of China (PRC)
Launch site: Taiyaun Space Center, China (TSC)

Note: This is SATELLITE DEBRIS
aabbcc
Your satellite tracking list
Your tracking list is empty




NASA's NSSDC Master Catalog

Two Line Element Set (TLE):
1 30362U 99025ABZ 19341.20882412  .00000265  00000-0  21293-3 0  9997
2 30362  99.0436 252.7347 0113513 301.8524  57.1630 13.96364083654048
Source of the keplerian elements: AFSPC